Regional Weather Roundup
Issued by NWS

Home | Current Version | Previous Version | Graphics & Text | Print | Product List | Glossary On
Versions: 1 2 3 4 5 6 7 8 9 10 11 12 13 14 15 16 17 18 19 20 21 22 23 24 25 26 27 28 29 30 31 32 33 34 35 36 37 38 39 40 41 42 43 44 45 46 47 48 49 50
000
ASUS43 KLSX 182007
RWRMO

WEATHER SUMMARY FOR MISSOURI
NATIONAL WEATHER SERVICE SPRINGFIELD MO
300 PM CDT FRI APR 18 2014

NOTE: "FAIR" INDICATES FEW OR NO CLOUDS BELOW 12,000 FEET WITH NO
       SIGNIFICANT WEATHER AND/OR OBSTRUCTIONS TO VISIBILITY.
       CURRENT SKY AND/OR WEATHER CONDITIONS ARE NOT AVAILABLE FOR
       CHILLICOTHE AND FARMINGTON.

MOZ001>031-035>038-043-044-053-054-182100-
...NORTHERN AND WESTERN MISSOURI...

CITY           SKY/WX    TMP DP  RH WIND       PRES   REMARKS
KANSAS CTY INT MOSUNNY   66  39  37 VRB3      30.24F
KANSAS C DTWN  SUNNY     68  40  35 S9        30.23F
LEE`S SUMMIT   SUNNY     65  42  43 MISG      30.25F
ST JOSEPH      SUNNY     67  38  34 S14       30.23F
CHILLICOTHE      N/A     64  42  44 SE8G17    30.27F
KIRKSVILLE     SUNNY     64  36  35 SE7       30.28F

$$
MOZ066>068-077>081-088>096-101>105-182100-
...SOUTHWEST MISSOURI...

CITY           SKY/WX    TMP DP  RH WIND       PRES   REMARKS
SPRINGFIELD    MOSUNNY   70  38  31 S7        30.22F
JOPLIN         SUNNY     71  41  33 VRB5      30.22F

$$
MOZ032>034-039>042-045>050-055>058-069>072-182100-
...CENTRAL MISSOURI...

CITY           SKY/WX    TMP DP  RH WIND       PRES   REMARKS
COLUMBIA       SUNNY     68  43  40 VRB5      30.26F
JEFFERSON CITY SUNNY     67  41  38 S5        30.25F
ROLLA          SUNNY     69  42  37 W5        30.24F
SEDALIA        SUNNY     67  44  43 E3        30.27F
WHITEMAN AFB   MOSUNNY   65  40  39 VRB2      30.25F
OSAGE BEACH    SUNNY     68  39  34 N5        30.26F

$$
MOZ051-052-059>065-182100-
...EAST CENTRAL MISSOURI...

CITY           SKY/WX    TMP DP  RH WIND       PRES   REMARKS
ST LOUIS INTL  MOSUNNY   69  40  34 N7        30.27F
SPIRIT OF STL  SUNNY     67  41  38 E5        30.26F
ST CHARLES     SUNNY     67  41  38 CALM      30.27F

$$
MOZ072>076-082>087-097>100-106>115-182100-
...SOUTH CENTRAL AND SOUTHEAST MISSOURI...

CITY           SKY/WX    TMP DP  RH WIND       PRES   REMARKS
CAPE GIRARDEAU SUNNY     73  41  31 NE5       30.22F
FARMINGTON     SUNNY     68  39  34 NE12      30.27F
POPLAR BLUFF   SUNNY     72  41  32 E8G17     30.21F
WEST PLAINS    MOSUNNY   71  41  33 NE9       30.22F

$$



USA.gov is the U.S. government's official web portal to all federal, state and local government web resources and services.